Regional Weather Roundup
Issued by NWS

Home | Current Version | Previous Version | Graphics & Text | Print | Product List | Glossary On
Versions: 1 2 3 4 5 6 7 8 9 10 11 12 13 14 15 16 17 18 19 20 21 22 23 24 25 26 27 28 29 30 31 32 33 34 35 36 37 38 39 40 41 42 43 44 45 46 47 48 49 50
000
ASUS43 KMPX 210501
RWRMN
WEATHER ROUNDUP FOR MINNESOTA
NATIONAL WEATHER SERVICE TWIN CITIES/CHANHASSEN MN
1200 AM CDT MON APR 21 2014


NOTE: "FAIR" INDICATES FEW OR NO CLOUDS BELOW 12,000 FEET WITH NO
SIGNIFICANT WEATHER AND/OR OBSTRUCTIONS TO VISIBILITY. N/A MEANS
CURRENT SKY AND/OR WEATHER CONDITIONS ARE NOT AVAILABLE.

MNZ060>063-068>070-210600-
   Twin Cities Metro

CITY           SKY/WX    TMP DP  RH WIND       PRES   REMARKS
TWIN CITIES    CLOUDY    61  54  77 NE6       29.93F
ST PAUL        CLOUDY    57  52  83 CALM      29.94S
CRYSTAL        MOCLDY    59  38  45 CALM      29.92F
BLAINE         PTCLDY    57  39  51 CALM      29.93F
EDEN PRAIRIE   MOCLDY    60  53  77 E5        29.92F
LAKEVILLE      CLOUDY    54  54 100 SE6       29.92F
SOUTH ST PAUL  CLOUDY    62  54  74 CALM      29.92F
LAKE ELMO      FAIR      55  54  94 CALM      29.95R
$$
MNZ001>005-007-008-013>017-022>024-027-028-210600-
   Northwest Minnesota

CITY           SKY/WX    TMP DP  RH WIND       PRES   REMARKS
BEMIDJI        PTCLDY    49  29  46 S7        29.86F
HALLOCK        CLOUDY    54  41  62 W13       29.85S
ROSEAU         PTCLDY    54  43  66 SW8       29.85R
WARROAD        MOCLDY    55  37  50 SW9G20    29.85R
THIEF RVR FALL MOCLDY    55  36  47 W8        29.90S
CROOKSTON      MOCLDY    57  37  47 NW10      29.90R
FOSSTON        CLEAR     55  32  41 SW12G25   29.91R
DETROIT LAKES  PTCLDY    54  34  47 S9        29.88F
PARK RAPIDS    PTCLDY    48  32  53 SE9       29.89F
$$
MNZ006-009>011-018-025>026-210600-
   North Central Minnesota

CITY           SKY/WX    TMP DP  RH WIND       PRES   REMARKS
BAUDETTE       MOCLDY    47  33  58 SE7       29.82F
FLAG ISLAND    CLOUDY    39  32  75 SE8       29.80R
INTL FALLS     PTCLDY    40  31  70 SE7       29.86F
WASKISH        PTCLDY    48  32  53 SE6       29.84F
BIG FORK       PTCLDY    48  30  49 S5        29.90F
LONGVILLE      PTCLDY    37  30  75 SE3       29.90F
GRAND RAPIDS   CLEAR     52  28  40 S12       29.92F
CRANE LAKE     PTCLDY    28  23  80 CALM      29.93F
ORR            PTCLDY    48  27  43 MISG      29.88F
COOK           PTCLDY    39  28  65 SE3       29.92F
$$
MNZ012-019>021-037-210600-
   Northeast Minnesota

CITY           SKY/WX    TMP DP  RH WIND       PRES   REMARKS
DULUTH         CLEAR     46  29  51 SE7       29.96S
ELY            CLEAR     34  27  75 CALM      29.94F
HIBBING        PTCLDY    34  29  82 CALM      29.93F
EVELETH        CLEAR     34  30  86 NE5       29.95S WCI  30
DULUTH HARBOR  CLEAR     36  32  87 CALM      29.98R
SILVER BAY     CLEAR     30  30 100 CALM      29.95F
GRAND MARAIS     N/A     32  29  88 CALM      29.97F
G MARAIS ARPRT CLEAR     30  25  80 CALM      29.98S
$$
MNZ029>031-032-039>041-046>048-054>057-064-210600-
   West Central Minnesota

CITY           SKY/WX    TMP DP  RH WIND       PRES   REMARKS
FERGUS FALLS   PTCLDY    55  34  44 S10       29.86S
WHEATON        MOCLDY    61  39  44 SE12      29.91F
MORRIS         MOCLDY    55  39  54 SE5       29.90F
ALEXANDRIA     CLOUDY    57  36  45 SE8       29.92F
ELBOW LAKE     FAIR      54  37  51 SE7       29.90S
WADENA         PTCLDY    52  36  54 S7        29.90F
GLENWOOD       PTCLDY    55  37  50 E6        29.93F
APPLETON       MOCLDY    61  39  44 E8        29.90S
BENSON         CLOUDY    61  36  39 SE7       29.91F
ORTONVILLE     MOCLDY    55  37  50 E5        29.91S
MADISON        PTCLDY    55  45  67 E3        29.91S
WILLMAR        FAIR      61  39  44 NE7       29.94R
$$
MNZ033>034-036-042>043-049>051-058-059-210600-
   Central Minnesota

CITY           SKY/WX    TMP DP  RH WIND       PRES   REMARKS
ST CLOUD       PTCLDY    57  34  41 E5        29.93F
SAUK CENTRE    CLOUDY    51  40  66 CALM      29.93F
PAYNESVILLE    CLOUDY    59  35  40 CALM      29.93F
AITKIN         CLEAR     43  34  70 CALM      29.93S
PINE RIVER     PTCLDY    43  34  70 SE3       29.95F
BRAINERD       CLEAR     45  33  63 CALM      29.93F
STAPLES        PTCLDY    54  32  43 SE5       29.91F
LONG PRAIRIE   CLOUDY    52  39  62 CALM      29.93F
LITTLE FALLS   PTCLDY    52  32  46 CALM      29.94S
LITCHFIELD     LGT RAIN  59  43  55 SE10      29.93F
BUFFALO        PTCLDY    58  36  44 CALM      29.94F
MAPLE LAKE     PTCLDY    55  39  54 CALM      29.95R
$$
MNZ037-044-045-052-053-210600-
   East Central Minnesota

CITY           SKY/WX    TMP DP  RH WIND       PRES   REMARKS
PRINCETON      CLEAR     48  39  71 E5        29.94F
MORA           CLEAR     37  34  87 CALM      29.97S
CAMBRIDGE      CLEAR     48  36  61 CALM      29.93F
RUSH CITY      PTCLDY    45  37  72 CALM      29.95S
HINCKLEY       FAIR      46  34  61 CALM      29.96S
CLOQUET        CLEAR     46  30  53 CALM      29.96R
MCGREGOR       CLEAR     48  32  53 SE5       29.95S
$$
MNZ071>073-080-081-089-090-097-098-210600-
   Southwest Minnesota

CITY           SKY/WX    TMP DP  RH WIND       PRES   REMARKS
MONTEVIDEO     CLOUDY    59  45  58 SE6       29.92S
GRANITE FALLS  PTCLDY    57  46  65 E6        29.92F
CANBY          PTCLDY    51  44  78 CALM      29.92S
MARSHALL       PTCLDY    61  52  72 SE12      29.89F
REDWOOD FALLS  PTCLDY    59  52  77 SE10      29.91S
OLIVIA         PTCLDY    59  48  67 E5        29.92S
PIPESTONE      PTCLDY    61  50  67 SE3       29.90R
WINDOM         MOCLDY    59  54  82 E6        29.92S
WORTHINGTON    CLOUDY    64  48  55 SW13      29.93F
JACKSON        CLOUDY    59  54  82 SE7       29.93S
TRACY          PTCLDY    62  54  76 SE10      29.90F
SLAYTON        PTCLDY    57  51  79 SE8       29.91F
$$
MNZ065>067-074>077-082>085-091>093-210600-
   South Central Minnesota

CITY           SKY/WX    TMP DP  RH WIND       PRES   REMARKS
MANKATO        CLOUDY    61  54  77 SE8       29.94R
NEW ULM        CLOUDY    61  55  82 SE6       29.93R
ST JAMES       CLOUDY    61  55  82 E6        29.92F
FAIRMONT       CLOUDY    61  54  77 SE6       29.95R
GLENCOE        CLOUDY    58  49  72 E3        29.92S
FARIBAULT      CLOUDY    63  54  72 E9        29.94S
OWATONNA       CLOUDY    61  55  82 E9        29.94S
WASECA         CLOUDY    59  55  88 E8        29.95S
ALBERT LEA     CLOUDY    59  57  94 SE7       29.95R
$$
MNZ078>079-086>088-094>096-210600-
   Southeast Minnesota

CITY           SKY/WX    TMP DP  RH WIND       PRES   REMARKS
ROCHESTER      CLOUDY    56  54  93 SE7       29.96F
RED WING       CLOUDY    55  52  88 CALM      29.94S
STANTON        CLOUDY    60  55  81 SE7       29.93S
DODGE CENTER   CLOUDY    61  57  88 SE13      29.95F
WINONA           N/A    N/A N/A N/A MISG        N/A
AUSTIN         TSTM      59  55  88 S10       29.95F
PRESTON        CLOUDY    58  54  86 S6        29.98F
$$
ABBREVIATIONS USED IN REMARKS
   TC - TEMPERATURES IN CELSIUS
  WCI - WIND CHILL INDEX
   HX - HEAT INDEX
  VSB - VISIBILITY
$$



USA.gov is the U.S. government's official web portal to all federal, state and local government web resources and services.